Location: Altenhof
(50.2418°N, 10.8789°E)
Time: 06:44:43
(UTC+00:00)

ATLAS CENTAUR R/B - Pass Details

Date: 18 February 2020
Orbit: 466 x 681 km, 64.7° (Epoch: 28 March)

Event Time Altitude Azimuth Distance (km) Brightness Sun altitude
Exits shadow 03:46:17 74° 47° (NE) 660 1.7 -25.6°
Drops below altitude 10° 03:50:19 10° 41° (NE) 1,958 4.8 -25.0°
Sets 03:52:31 0° 41° (NE) 2,829 5.7 -24.7°
